Terminal Aerodrome Forecast
Issued by NWS Lake Charles, LA

Home | Current Version | Previous Version | Text Only | Print | Product List | Glossary On
Versions: 1 2 3 4 5 6 7 8 9 10 11 12 13 14 15 16 17 18 19 20 21 22 23
000
FTUS44 KLCH 271500 AAA
TAFARA
TAF AMD
KARA 271523Z 2715/2812 05010KT P6SM BKN018
      TEMPO 2715/2719 SCT025 BKN035
     FM271900 04010KT P6SM SCT035 SCT120
     FM280000 02009KT P6SM BKN120=

USA.gov is the U.S. government's official web portal to all federal, state and local government web resources and services.